Weather in Zalishchyky

Ukraine / Ternopil District     48°40′45″N   25°46′16″E
temp.,
°C
wind,
m/s
gust,
m/s
humid.,
%
clouds,
%
prec.,
mm/h
press.,
hPa
HPBL,
m
14 may, fri
fri1400:00+9ese499610 0.4 1004226
03:00+8se229734 0.4 100519
06:00+8se22967 0.0 100515
09:00+13sse227987 0.0 1005301
12:00+14sse4576100 0.3 1006516
15:00+12ssw4588100 1.8 1006207
18:00+13sw238289 1.0 1007217
21:00+10wsw498537 1.1 1008184
15 may, sat
sat1500:00+10sw3580100 0.0 100986
03:00+11sw3580100 0.0 1009117
06:00+10w2382100 0.0 101076
09:00+11w2382100 0.1 1012194
12:00+14wsw357063 0.1 1012855
15:00+17nnw336143 0.3 10111295
18:00+17ene115916 0.0 10111127
21:00+12e34795 0.0 101149
16 may, sun
sun1600:00+10e2283100 0.0 101120
03:00+10ese228778 0.0 101115
06:00+10e2288100 0.0 101037
09:00+14se3578100 0.0 1010317
12:00+18se6866100 0.0 1009844
15:00+19sse6962100 0.0 10071403
18:00+17sse71274100 0.6 1006747
21:00+14wnw2388100 0.7 100777
17 may, mon
mon1700:00+12wnw1193100 0.0 100710
03:00+11nnw1193100 0.0 100812
06:00+10wnw11938 0.0 100811
09:00+15nw347621 0.0 1009500
12:00+18wnw55594 0.0 10091383
15:00+20nw44510 0.0 10081690
18:00+19nne3353100 0.0 10071171
21:00+15ne1169100 0.0 100811
18 may, tue
tue1800:00+12e3594100 6.7 1010120
03:00+11n239592 6.9 101050
06:00+10ne119650 0.0 101010
09:00+14ese228199 0.0 1010469
12:00+16sse127795 1.4 1009596
15:00+14nw458897 5.8 1009261
18:00+15wnw5681100 0.2 1008728
21:00+11nw71092100 0.2 1009465